Location: Nelson
(41.2830°S, 173.2830°E)
Time: 04:57:20
(UTC+12:00)

SMAP - Pass Details

Date: 14 May 2021
Orbit: 681 x 683 km, 98.1° (Epoch: 16 June)

Event Time Altitude Azimuth Distance (km) Brightness Sun altitude
Rises 17:55:56 0° 155° (SSE) 3,084 6.0 -7.3°
Reaches altitude 10° 17:58:31 10° 142° (SE) 2,159 5.1 -7.7°
Maximum altitude 18:02:30 27° 85° (E) 1,334 4.1 -8.5°
Drops below altitude 10° 18:06:26 10° 27° (NNE) 2,134 5.5 -9.2°
Sets 18:08:58 0° 15° (NNE) 3,040 6.4 -9.6°
